Terminal Aerodrome Forecast
Issued by NWS Honolulu, HI

Home | Current Version | Previous Version | Text Only | Print | Product List | Glossary On
Versions: 1 2 3 4 5 6 7 8 9 10 11 12 13 14 15 16 17 18 19 20 21 22 23 24 25 26 27 28 29
000
FTPA31 PHFO 231734
TAFHNL
TAF
PHNL 231734Z 2318/2424 04006KT P6SM FEW030 SCT060
     FM232000 04015G21KT P6SM FEW030 SCT060
     FM240600 04009KT P6SM FEW045 BKN250=

USA.gov is the U.S. government's official web portal to all federal, state and local government web resources and services.